Regional Weather Roundup
Issued by NWS

Home | Current Version | Previous Version | Text Only | Print | Product List | Glossary On
Versions: 1 2 3 4 5 6 7 8 9 10 11 12 13 14 15 16 17 18 19 20 21 22 23 24 25 26 27 28 29 30 31 32 33 34 35 36 37 38 39 40 41 42 43 44 45 46 47 48 49 50
000
ASUS43 KDTX 172301
RWRMI
MICHIGAN HOURLY REGIONAL WEATHER ROUNDUP
NATIONAL WEATHER SERVICE DETROIT/PONTIAC MI
600 PM EST WED JAN 17 2018

NOTE: "FAIR" INDICATES FEW OR NO CLOUDS BELOW 12,000 FEET WITH NO
SIGNIFICANT WEATHER AND/OR OBSTRUCTION TO VISIBILITY.

MIZ047>049-052>055-059>063-066>070-074>076-081>083-180000-
SOUTHEAST LOWER MICHIGAN

CITY           SKY/WX    TMP DP  RH WIND       PRES   REMARKS
ADRIAN         FAIR      17  10  74 SW8       30.34F WCI   7
ALMA           FAIR      26  14  60 SW13G22   30.20F WCI  15
ANN ARBOR      FAIR      22  13  68 S10       30.29F WCI  11
BAD AXE        FAIR      24  13  62 SW15G21   30.14F WCI  12
CARO           FAIR      24  15  66 SW17G24   30.17F WCI  11
DETROIT CITY   FAIR      20  12  71 SW14      30.28F WCI   7
DETROIT        FAIR      19  12  74 S13       30.31F WCI   6
FLINT          FAIR      25  11  55 SW13      30.23F WCI  14
GROSSE ILE     FAIR      20  12  72 SW12      30.31F WCI   8
HILLSDALE      FAIR      19  10  68 SW10      30.30S WCI   8
HOWELL         FAIR      24  13  63 SW14      30.24F WCI  12

CITY           SKY/WX    TMP DP  RH WIND       PRES   REMARKS
JACKSON        FAIR      22  12  65 SW16      30.28F WCI   8
LAMBERTVILLE   FAIR      18  11  73 SW7       30.35F WCI   9
LANSING        FAIR      23  13  65 SW16      30.25F WCI  10
LAPEER         FAIR      25  12  58 W10       30.21F WCI  15
MASON          FAIR      25  10  53 SW10      30.26F WCI  15
MT. CLEMENS    PTCLDY    24  12  60 SW12      30.23F WCI  13
PONTIAC        FAIR      24  13  62 SW10      30.23F WCI  14
PORT HOPE        N/A     25  13  60 SW13G28   30.10F WCI  14
PORT HURON     FAIR      25  12  58 SW9       30.24F WCI  15
TRI CITIES     MOCLDY    26  15  63 SW20G31   30.17F WCI  12
MIDLAND        FAIR      27  13  55 SW17G26   30.16F WCI  14
TROY           FAIR      23  14  69 SW10G18   30.28F WCI  12
SAGINAW HB     FAIR      25  18  74 SW18G24   30.18F WCI  11
$$
MIZ043>046-050>051-056>058-064>065-071>073-077>080-180000-
SOUTHWEST LOWER MICHIGAN

CITY           SKY/WX    TMP DP  RH WIND       PRES   REMARKS
BATTLE CREEK   FAIR      21  14  74 SW15      30.30F WCI   8
BENTON HARBOR  FAIR      23  13  65 SW20G25   30.35F WCI   8
BIG RAPIDS     FAIR      23  13  64 W18       30.15F WCI   9
COLDWATER      FAIR      17  10  71 SW13      30.33S WCI   4
HOLLAND        FAIR      25  15  66 SW20G25   30.28F WCI  11
GRAND RAPIDS   MOCLDY    24  15  68 SW24G33   30.25F WCI   8
IONIA          FAIR      24  15  68 SW23      30.22F WCI   9
KALAMAZOO      FAIR      22  12  65 SW14G23   30.32F WCI   9
LUDINGTON      FAIR      26  17  68 SW22G28   30.17F HAZE    WCI  12
MARSHALL       FAIR      21  12  68 SW17      30.30S WCI   7
MOUNT PLEASANT FAIR      26  13  58 SW18G24   30.16F WCI  13
MUSKEGON       MOCLDY    28  15  58 SW18G33   30.24F WCI  15
SOUTH HAVEN    FAIR      26  15  64 SW16G29   30.32F WCI  13
$$
MIZ016>042-180000-
NORTHERN LOWER MICHIGAN

CITY           SKY/WX    TMP DP  RH WIND       PRES   REMARKS
ALPENA         FAIR      25  11  55 SW13G21   29.99F WCI  14
BEAVER ISLAND  FAIR      28  18  68 SW24G38   29.94F WCI  13
BELLAIRE       FAIR      25  14  64 SW9G20    30.05F WCI  15
CADILLAC       FAIR      21  12  68 SW15G29   30.07S WCI   7
CHARLEVOIX     FAIR      27  15  61 SW17G25   30.01F WCI  14
FRANKFORT      FAIR      28  17  63 SW16G26   30.09F WCI  16
GAYLORD        FAIR      21  10  62 SW18G28   29.97F WCI   6
GRAYLING       FAIR      22   8  54 SW10G18   30.03F WCI  12
HARBOR SPRINGS FAIR      26  15  63 SW17G26   29.98F WCI  13
HOUGHTON LAKE  FAIR      22  11  62 SW18G26   30.06F WCI   7
MANISTEE       FAIR      25  16  68 SW9G24    30.13F WCI  15
OSCODA         FAIR      25  11  55 SW16G24   30.06F WCI  12
PELLSTON       FAIR      26  13  57 SW17G23   29.96F WCI  13
ROGERS CITY    FAIR      24  10  54 SW17G24   29.96F WCI  11
TRAVERSE CITY  FAIR      26  13  57 SW15G25   30.03F WCI  14
$$
MIZ007>008-015-180000-
EASTERN UPPER MICHIGAN

CITY           SKY/WX    TMP DP  RH WIND       PRES   REMARKS
KINROSS        FAIR      23  16  74 SW15G24   29.87F WCI  10
MACKINAC ISLAN FAIR      26  19  75 SW24G41   29.92F HAZE    WCI  11
NEWBERRY       FAIR      19  13  80 SW25      29.84F WCI   1
S. S. MARIE    FAIR      23  13  65 SW17G26   29.87F WCI   9
MUNISING         N/A     23  12  62 S14G20    29.84F WCI  11
$$
MIZ004>006-011>014-085-180000-
CENTRAL UPPER MICHIGAN

CITY           SKY/WX    TMP DP  RH WIND       PRES   REMARKS
MANISTIQUE     FAIR      20  10  64 SW18G26   29.92F WCI   5
ESCANABA       FAIR      19  11  70 S9        29.93F WCI   8
MENOMINEE      FAIR      22   7  52 W12G23    30.01  WCI  10
SAWYER-GWINN   CLEAR     27   7  43 SW14      29.82F WCI  15
$$
MIZ001>003-009>011-084-180000-
WESTERN UPPER MICHIGAN

CITY           SKY/WX    TMP DP  RH WIND       PRES   REMARKS
IRON MOUNTAIN  FAIR      28   3  34 W14G21    29.87F WCI  17
HOUGHTON       FAIR      30  12  47 W21G31    29.75S WCI  17
COPPER HARBOR    N/A     31  10  41 VRB7G18   29.77R WCI  24
IRONWOOD       FAIR      26   9  48 SW17G23   29.87S WCI  13
$$

ABBREVIATIONS USED IN REMARKS
   TC - TEMPERATURE IN CELSIUS
  WCI - WIND CHILL INDEX
   HX - HEAT INDEX
  VSB - VISIBILITY





USA.gov is the U.S. government's official web portal to all federal, state and local government web resources and services.